RH
10 16 17 18 24 28 34 36 41 45 55 70 70 66 71 72 72 52 49 57 45 42 40 40 53 58 59 60 52 54 58 48 48
8 14 17 19 20 25 31 34 42 47 55 64 64 58 69 72 71 69 53 61 62 45 56 40 46 54 62 60 54 56 60 49 58
9 10 17 17 18 22 27 29 34 41 48 59 58 57 61 61 65 68 65 62 64 60 56 56 58 58 59 58 58 61 67 56 60
8 11 15 17 17 19 23 25 29 35 42 52 56 55 56 59 59 60 64 62 62 64 61 66 64 68 63 59 58 58 64 62 54
8 11 14 16 16 17 20 25 25 29 33 37 46 51 58 59 60 60 61 65 64 70 71 68 68 68 67 57 59 70 64 58 51
9 11 12 16 15 18 19 22 26 23 29 28 32 46 48 54 57 60 63 67 67 75 73 73 62 66 68 63 61 61 61 60 58
10 10 18 16 17 20 20 24 30 30 26 24 28 35 40 54 59 59 59 68 73 73 76 74 67 66 65 63 59 58 56 57 58
10 10 16 21 21 26 30 30 34 34 28 31 30 40 40 52 62 62 64 71 79 78 75 72 66 65 62 58 51 46 58 56 57
10 10 10 20 25 26 33 33 36 37 37 34 37 47 45 54 66 70 71 80 83 80 74 68 63 63 60 60 43 65 76 65 55
11 12 11 16 23 27 30 31 38 38 42 39 45 52 52 58 70 77 85 79 83 82 78 70 66 64 64 61 59 79 81 80 55
11 12 12 13 18 26 32 28 29 35 39 51 54 60 59 63 76 82 87 84 84 81 74 72 66 66 63 61 57 86 86 87 73
10 10 10 13 20 24 37 34 39 43 45 52 56 60 64 66 76 82 85 83 79 76 76 72 70 69 76 68 67 87 91 84 72
15 15 12 17 23 26 34 38 36 45 45 52 57 60 63 69 77 82 80 80 82 80 75 70 58 61 75 71 71 93 93 86 75
20 17 22 27 28 38 42 39 37 50 49 52 51 54 59 68 74 81 77 80 83 83 80 81 82 77 68 73 70 74 95 95 67
24 24 28 28 36 40 40 41 46 54 58 56 59 62 65 73 77 74 75 84 82 82 86 79 77 82 73 62 70 86 94 98 94
34 34 34 31 35 44 43 48 51 58 65 64 67 70 78 81 82 83 82 78 81 83 77 64 67 64 60 56 60 88 98 100 100
29 30 35 34 39 47 54 52 51 59 63 65 70 87 87 86 86 82 83 71 73 76 69 65 57 58 70 68 77 96 91 72 74
38 38 37 40 47 53 58 60 65 61 66 67 80 88 87 89 80 80 79 72 74 78 76 94 57 53 70 73 51 53 66 80 65
47 47 48 52 53 57 62 63 66 67 69 69 79 81 77 74 68 74 86 73 67 97 96 99 99 96 77 61 86 92 90 90 88
60 47 46 48 50 53 58 61 65 73 74 71 77 72 74 65 59 61 64 63 57 58 76 92 91 93 94 89 89 90 89 89 93
Wind_Speed
20 23 23 25 26 24 22 23 21 20 19 18 18 17 16 13 14 11 11 11 7 9 6 6 8 9 9 8 7 7 6 6 6
13 21 23 27 26 25 22 22 23 22 19 19 18 19 15 15 14 14 12 11 11 7 6 6 8 11 11 11 10 8 7 7 7
13 17 22 24 25 26 22 24 22 21 20 19 18 17 16 15 15 14 11 10 10 11 10 9 11 11 13 12 10 11 9 8 8
16 15 19 22 24 25 24 23 22 23 21 20 19 18 16 16 16 16 15 12 13 11 11 12 12 15 14 12 11 10 8 7 6
11 19 18 20 24 24 25 24 24 23 23 23 21 17 16 16 15 16 17 16 15 15 15 15 16 15 12 11 12 9 11 11 9
19 7 14 18 19 22 24 24 22 24 23 24 22 19 19 18 18 18 18 18 18 18 16 17 17 15 14 13 13 12 11 10 9
12 6 6 12 18 20 23 23 22 21 22 23 21 21 20 19 19 18 18 18 19 18 18 18 16 15 15 14 14 13 12 11 11
18 15 12 13 17 17 18 20 21 20 19 18 19 18 19 18 17 17 17 18 20 19 19 18 17 15 14 13 12 11 12 11 10
17 18 13 13 16 17 18 19 18 20 19 17 18 18 19 17 18 17 18 17 17 17 16 13 12 12 13 14 11 10 10 9 10
21 21 20 15 17 19 19 19 16 18 18 16 16 15 16 14 17 17 16 17 16 19 17 13 13 16 12 12 12 11 11 10 10
22 22 24 15 15 17 18 20 20 17 18 16 16 15 14 15 17 17 15 15 17 16 16 17 13 14 13 10 10 9 10 10 6
20 18 18 12 14 18 16 19 18 17 18 16 15 16 15 15 17 17 16 17 17 15 14 15 13 11 7 11 10 12 14 13 9
15 14 16 11 15 18 17 16 20 18 20 18 18 17 16 16 16 14 16 16 13 9 10 11 9 12 8 11 12 14 14 13 7
12 14 11 12 14 15 15 15 18 16 16 17 17 16 16 16 15 13 12 11 8 7 6 5 7 9 11 12 11 11 13 14 10
10 11 15 18 15 15 14 14 15 15 13 13 14 15 15 15 13 11 10 11 9 8 8 10 10 10 9 7 9 10 14 14 15
11 14 15 16 16 16 14 13 13 12 11 12 13 14 13 13 11 9 10 11 10 7 8 8 9 9 8 7 8 6 4 9 7
16 17 16 17 16 15 12 11 11 11 11 12 13 12 13 12 10 10 9 9 8 7 8 8 7 5 5 5 5 8 7 7 7
13 12 14 14 13 13 13 11 11 10 10 12 12 10 10 11 10 10 9 5 1 5 2 4 4 5 6 6 7 6 6 7 7
10 11 13 13 13 13 12 11 11 10 9 10 12 12 11 9 10 8 8 9 7 15 11 7 8 6 9 7 11 12 14 15 13
11 10 12 12 12 11 11 11 12 9 9 11 12 12 12 10 10 11 10 9 10 9 6 11 14 13 10 8 12 10 13 13 12
Wind_Direction
187 191 203 202 200 201 196 198 197 195 188 189 193 199 196 191 197 211 211 198 235 190 220 180 149 183 192 211 194 198 184 202 226
219 179 202 201 199 199 197 197 195 194 192 189 193 197 189 190 192 216 208 209 190 209 186 180 185 186 193 195 199 199 192 229 188
208 200 201 201 198 197 197 198 194 194 192 189 193 197 189 190 195 197 219 194 204 203 183 210 169 191 202 198 193 186 187 208 209
200 199 198 204 197 197 194 196 195 194 194 193 193 196 191 190 194 193 194 208 193 191 196 184 194 198 199 187 187 193 190 231 270
229 181 192 205 203 198 194 197 195 194 194 198 198 194 193 187 190 194 192 198 197 187 202 191 196 200 190 188 175 188 179 213 222
250 146 185 194 208 197 196 193 197 197 194 199 196 195 192 193 195 192 192 192 196 197 196 198 200 192 191 189 185 192 192 197 219
250 219 197 221 206 207 194 191 193 196 194 198 195 189 197 195 196 194 194 192 195 194 201 198 195 188 188 192 192 194 202 188 216
262 234 188 218 220 203 197 190 188 192 197 192 191 187 194 194 189 194 192 195 192 200 202 204 192 183 187 197 202 194 200 200 213
254 268 235 210 218 212 189 192 192 186 190 192 192 184 195 188 181 185 193 190 196 208 221 217 204 187 197 201 219 182 169 185 224
248 258 258 211 214 212 193 191 188 188 187 192 185 193 190 182 175 179 183 191 200 212 221 213 200 203 199 206 220 164 173 177 221
235 241 255 223 210 205 189 189 182 187 182 190 185 182 184 178 169 176 181 195 206 215 221 215 208 201 202 210 215 167 163 156 216
244 238 238 207 201 195 180 183 168 171 174 180 176 176 184 178 173 179 185 202 213 218 214 210 193 213 209 208 214 177 165 171 208
238 251 256 185 189 178 173 179 168 168 171 175 176 175 178 176 181 184 193 201 209 222 221 221 205 209 198 215 223 168 179 192 207
235 229 183 157 165 165 173 169 164 170 166 171 169 170 172 173 178 185 193 194 196 193 210 174 177 209 214 226 222 197 189 195 224
214 182 158 162 156 156 152 151 150 148 161 156 155 161 165 168 174 179 179 176 167 176 180 193 201 209 224 231 225 207 187 199 218
146 145 141 136 138 136 131 144 139 151 143 148 152 157 158 159 163 169 166 170 165 162 191 208 210 209 221 222 214 181 99 180 200
122 118 117 118 121 110 106 117 133 126 142 149 144 136 154 153 161 152 152 160 159 173 186 218 224 230 239 248 230 144 173 205 189
86 89 98 105 109 104 108 108 115 134 144 149 139 146 158 157 150 153 148 109 61 214 72 353 248 202 195 209 212 190 149 180 190
92 105 101 98 100 101 106 111 118 120 142 161 139 151 156 152 151 162 150 150 127 49 50 42 37 41 40 68 64 99 108 101 93
54 51 76 83 99 109 113 120 118 133 137 138 149 156 153 160 171 171 175 189 188 173 94 66 55 42 46 73 119 111 106 104 99